Temp
26 26 26 26 26 26 26 26 26 26 26 26 26 26 26 26 25 25 25 25 25 25 25 25 25 25 25 25 25 25 25 25 25 25 25 25 25 25 25 25 25 25
25 25 25 25 25 26 26 26 26 26 26 26 26 26 25 25 25 25 25 25 25 25 25 25 25 25 25 25 25 25 25 25 25 25 24 24 24 24 24 25 25 25
25 25 25 25 25 25 26 26 26 26 26 26 25 25 25 25 25 25 25 25 25 25 25 25 25 25 25 25 25 25 25 25 25 24 24 24 24 24 24 24 24 24
25 25 25 25 25 25 25 25 25 25 25 25 25 25 25 25 25 24 24 24 24 25 25 25 25 25 25 24 24 24 24 24 24 24 24 24 24 24 24 24 24 24
25 25 25 25 25 25 25 25 25 25 25 25 25 25 25 25 25 24 24 24 24 24 24 25 25 25 25 24 24 24 24 24 24 24 24 24 24 24 24 23 23 24
25 25 25 25 25 25 25 25 25 25 25 25 25 24 24 24 24 24 24 24 24 24 24 24 24 25 25 24 24 24 24 24 24 23 23 24 24 24 23 23 23 23
24 24 24 24 24 24 24 24 24 24 24 24 24 24 24 24 24 24 24 24 24 24 24 24 24 24 24 24 24 24 24 24 23 23 23 23 24 23 23 23 23 23
24 24 24 24 24 24 24 24 24 24 24 24 24 24 24 24 24 24 24 24 24 24 24 24 24 24 24 24 24 24 23 23 23 23 23 23 23 23 23 23 23 23
24 24 24 24 24 24 24 24 24 24 24 24 24 24 24 24 23 23 23 23 23 23 23 23 23 23 24 24 24 24 24 23 23 23 23 23 23 23 23 23 23 23
23 23 23 23 23 24 24 24 23 23 24 24 24 24 23 23 23 23 23 23 23 23 23 23 23 23 23 24 24 24 24 24 24 23 23 23 23 23 23 23 23 23
22 23 23 22 23 23 23 23 23 23 23 23 23 23 23 22 22 22 22 22 23 23 23 23 23 23 23 23 23 23 23 24 24 23 23 23 23 23 23 23 23 23
21 22 22 22 23 23 23 23 23 23 23 23 23 22 22 22 22 22 22 22 22 22 23 23 23 23 23 23 23 23 23 23 23 23 23 23 23 23 23 23 23 23
22 22 22 22 23 23 22 22 22 22 23 23 22 22 22 21 21 21 22 22 22 22 22 22 22 22 23 23 23 23 23 23 23 23 23 23 23 23 23 22 22 22
23 23 23 23 23 22 22 22 22 22 22 22 22 22 22 21 21 21 22 22 22 22 22 22 22 22 22 22 23 23 23 23 23 22 22 22 22 23 22 22 22 22
23 23 23 22 22 22 22 22 22 22 22 22 21 22 21 21 21 21 21 22 22 22 22 22 22 22 22 22 23 23 23 23 23 22 22 22 22 22 22 22 22 22
22 22 22 21 21 21 21 22 23 23 22 21 21 21 21 21 21 21 21 22 22 22 22 22 21 22 22 22 22 22 22 22 22 22 22 22 22 22 22 22 22 22
21 21 21 21 21 21 21 22 22 21 20 20 21 21 21 21 21 21 21 21 21 21 21 21 21 21 22 22 22 22 22 22 22 22 22 22 22 22 22 22 22 22
21 21 22 22 21 21 21 20 20 20 20 21 21 21 20 20 21 21 21 21 21 21 21 21 21 21 22 22 22 22 22 22 22 22 22 21 21 22 22 22 22 22
23 22 22 22 21 20 20 20 20 20 21 21 21 21 20 21 21 21 21 21 21 21 21 21 21 21 22 22 22 22 22 22 22 22 21 21 22 22 22 22 22 22
23 22 22 22 21 20 20 20 21 21 21 21 21 21 21 21 21 21 21 21 20 20 20 21 21 21 21 21 21 21 21 21 21 21 21 21 22 22 22 22 22 22
22 22 22 22 21 21 21 21 21 21 21 21 21 21 21 21 21 20 20 21 20 20 20 21 21 20 20 20 20 21 21 21 21 21 21 22 22 22 22 22 22 23
22 22 22 22 21 21 21 21 21 22 22 22 22 22 21 22 22 21 21 21 20 20 21 21 20 20 20 20 20 20 21 21 21 21 21 21 21 22 22 22 22 22
22 22 22 22 22 21 21 21 22 22 22 22 22 22 22 22 23 23 22 22 21 21 21 20 20 20 20 20 20 20 20 20 20 20 21 21 21 21 21 21 21 21
23 22 22 22 22 22 22 22 22 22 22 22 22 23 23 23 23 23 22 22 22 21 21 20 20 20 20 20 20 20 20 20 20 20 20 20 20 20 20 20 21 21
23 23 23 23 22 22 22 22 22 22 22 23 23 23 23 23 23 22 22 21 21 21 21 21 20 20 20 20 20 19 19 19 19 19 19 19 19 19 19 20 20 20
23 23 23 23 23 22 22 22 22 22 23 23 23 23 23 22 22 22 21 21 21 21 20 20 20 20 19 19 19 19 19 19 18 18 18 18 18 18 19 19 19 19
Height
806 808 809 809 811 811 812 813 814 815 816 817 818 819 820 821 821 822 823 823 824 824 825 825 826 826 827 827 828 828 828 829 829 829 829 828 828 828 827 827 826 826
805 806 807 808 809 810 811 812 813 813 814 815 816 817 818 819 820 820 821 821 822 822 823 823 824 825 825 826 826 827 827 827 828 828 827 827 827 826 826 826 825 825
803 804 805 806 807 808 809 810 812 812 813 814 815 815 816 817 818 818 819 819 820 820 821 821 822 823 824 824 825 825 826 826 826 826 826 826 826 825 825 825 825 825
801 803 804 805 805 806 808 809 810 811 812 813 813 814 814 815 816 816 817 817 818 818 819 819 820 821 822 823 823 824 824 825 825 825 825 824 824 824 824 825 824 824
799 800 802 803 804 805 806 807 808 809 810 811 811 812 813 813 814 814 814 815 815 816 816 817 817 818 820 821 821 822 822 823 823 823 823 822 823 823 823 824 823 823
796 798 799 801 802 804 805 805 806 807 808 809 809 810 811 811 811 811 812 812 813 814 814 814 815 816 817 818 819 820 820 821 821 822 822 821 821 821 822 822 822 822
793 795 797 799 800 802 803 804 805 805 806 807 807 808 809 809 809 809 809 810 811 812 812 813 813 814 815 816 817 818 818 819 819 820 820 820 820 820 820 820 821 820
791 792 794 796 798 799 801 802 803 804 804 805 805 806 807 807 807 807 808 809 810 811 812 812 813 813 814 815 815 816 816 817 817 818 818 819 819 819 818 819 819 819
789 790 792 794 795 797 798 799 801 802 803 803 803 804 805 805 805 806 807 808 809 810 810 811 812 813 813 814 814 814 814 814 815 816 816 817 817 817 817 817 818 817
788 789 790 792 793 795 796 797 799 800 800 801 801 802 803 803 804 805 806 806 806 807 808 809 810 811 812 812 813 813 813 813 813 814 814 815 815 816 816 816 816 816
789 789 789 790 791 791 792 795 796 797 798 798 799 800 801 802 802 803 804 804 804 805 806 807 808 809 810 811 811 812 811 811 811 812 812 813 813 814 814 814 814 814
787 787 787 788 788 788 789 792 793 795 795 796 797 799 799 800 801 802 802 802 803 804 805 805 806 807 808 809 810 810 810 810 810 810 811 811 812 812 812 812 811 811
783 783 783 784 785 786 787 789 790 791 792 793 796 797 798 799 799 800 800 801 802 802 802 803 804 805 806 807 808 808 808 808 808 808 809 809 810 810 810 810 810 810
778 779 780 781 783 784 785 786 787 789 790 792 794 796 796 797 797 798 798 799 800 800 800 801 801 802 803 805 806 807 807 807 807 807 807 808 808 808 809 809 809 809
776 777 778 779 780 781 783 785 786 787 787 790 792 794 794 795 795 796 796 797 797 797 797 798 799 800 801 802 804 805 806 806 806 806 806 806 807 807 807 808 808 808
776 777 777 778 779 780 782 783 783 784 786 789 791 792 793 793 794 794 795 795 796 795 796 796 797 799 799 801 803 804 804 805 805 805 805 805 806 806 806 806 806 806
777 777 777 778 778 779 780 781 782 785 788 790 790 790 791 792 793 793 793 794 794 795 796 796 797 798 799 800 801 802 803 804 804 804 804 804 805 805 805 805 804 804
777 777 777 777 778 779 780 782 784 787 788 788 788 789 790 790 791 792 792 793 793 794 795 796 797 798 799 800 800 801 802 803 803 803 803 804 804 804 804 804 803 804
778 777 776 777 778 780 782 782 784 785 785 785 786 787 788 789 790 790 790 792 793 793 795 795 796 797 798 799 800 801 801 802 802 802 802 803 803 802 803 803 802 803
779 778 778 778 778 780 781 781 782 782 783 784 784 786 787 787 788 789 790 791 792 793 794 795 796 797 798 799 800 800 801 801 801 802 802 802 802 801 802 801 801 801
779 779 778 778 778 779 779 780 780 780 781 782 783 784 785 786 787 788 789 790 791 793 794 794 796 797 798 799 799 800 800 801 801 801 801 801 801 801 801 800 800 800
778 779 779 778 778 778 778 779 779 779 780 781 782 783 784 785 786 787 788 789 790 792 793 794 795 796 797 798 799 799 800 800 800 800 800 800 800 800 800 799 799 799
778 778 778 778 778 777 777 777 777 778 779 779 780 782 783 784 785 785 786 787 789 790 792 793 794 795 796 797 798 799 799 799 799 799 799 799 799 800 799 799 799 799
780 779 778 777 776 775 775 775 776 776 777 777 779 780 781 782 783 784 786 787 788 790 791 792 793 794 795 796 797 798 798 798 798 798 798 798 797 798 798 798 799 799
780 779 777 776 775 774 774 773 774 775 775 776 777 778 779 780 781 783 784 786 788 789 790 791 792 793 795 795 796 796 797 797 797 796 796 796 796 796 796 797 798 798
780 779 777 775 775 774 774 774 774 775 775 776 776 777 778 779 780 781 783 784 786 787 789 790 791 792 793 794 794 795 795 795 794 794 794 794 795 794 795 796 797 798
Wind_Speed
26 27 24 21 21 21 21 22 22 21 19 18 18 18 18 17 16 17 16 16 16 16 16 16 17 16 16 16 17 18 18 18 17 16 14 14 14 13 13 13 13 13
26 27 26 22 21 21 21 21 21 21 20 19 19 18 18 18 17 17 17 17 16 16 16 16 17 17 17 18 19 19 19 19 18 16 15 14 14 14 14 14 14 14
26 27 27 25 23 23 22 21 20 20 20 19 19 19 20 19 18 17 17 18 17 16 16 16 18 18 18 18 19 20 19 19 18 16 15 15 15 15 15 15 15 15
27 27 28 27 25 24 23 22 21 20 19 19 20 20 20 19 19 18 18 18 17 17 16 16 17 17 17 18 19 19 18 17 17 16 16 16 16 16 16 16 16 15
28 28 28 27 26 24 22 22 22 22 21 21 21 21 21 20 20 19 19 19 18 17 16 16 16 16 16 17 17 18 17 16 16 16 17 17 16 15 16 16 16 15
29 28 28 28 26 24 23 23 23 23 23 22 22 22 22 21 21 20 20 19 19 18 17 17 16 17 17 17 17 17 16 15 16 17 18 17 16 15 15 15 15 14
31 30 29 28 27 25 24 24 24 24 24 23 23 23 22 22 22 21 21 20 19 19 18 17 17 18 18 18 18 18 17 16 17 17 18 17 15 15 14 14 14 14
30 30 29 28 26 25 25 25 25 25 24 24 24 23 23 23 22 22 21 21 20 20 19 18 17 18 19 19 19 19 18 18 18 17 17 17 16 15 15 16 16 16
29 29 28 28 27 26 26 26 26 25 24 24 24 23 23 23 22 21 20 20 20 20 20 19 18 18 18 20 21 21 20 19 18 18 17 17 17 16 16 16 16 16
25 25 25 25 26 25 24 25 25 23 23 23 24 23 22 22 21 20 20 20 21 22 21 21 20 18 17 19 21 21 20 20 18 17 17 17 16 16 16 15 15 16
21 22 23 23 24 24 23 23 23 21 20 20 21 21 21 20 20 22 22 23 23 23 23 22 21 20 18 19 21 20 19 18 16 16 16 16 17 17 17 16 16 17
24 23 23 24 24 23 22 23 22 20 19 18 19 20 19 20 20 21 23 24 24 23 23 22 20 19 19 20 20 19 18 16 15 16 16 17 17 17 16 16 17 17
28 26 26 26 25 23 23 25 24 22 20 18 19 20 20 21 21 20 20 21 22 22 22 21 19 17 18 19 18 17 16 16 16 17 17 17 17 15 14 14 15 15
30 28 26 25 24 24 26 27 25 22 20 19 21 21 22 22 21 20 19 19 20 21 21 19 17 17 18 18 16 14 15 17 17 18 18 17 15 15 15 15 15 15
27 25 24 23 24 25 25 25 22 18 17 19 22 23 23 22 21 20 20 18 18 19 19 18 17 16 17 16 15 14 15 17 18 18 17 16 14 14 15 16 15 15
23 22 22 22 21 21 20 19 16 15 16 19 22 22 22 21 20 19 18 17 17 18 18 18 17 16 14 13 13 13 14 15 16 16 15 14 13 13 14 14 13 13
20 20 20 20 18 16 16 16 16 17 19 20 20 20 19 19 17 16 16 15 15 16 16 15 16 15 13 12 11 12 13 13 13 13 12 11 11 12 12 12 11 13
17 17 17 17 17 16 16 16 18 20 20 19 18 18 17 16 14 13 13 13 12 13 13 13 13 13 12 11 12 12 12 12 11 11 9 8 9 9 10 11 11 12
15 15 16 18 20 20 17 16 18 18 17 16 16 15 14 14 12 11 12 11 10 11 13 13 12 12 11 10 10 10 10 9 9 9 8 7 6 6 7 10 11 11
16 17 18 19 20 20 17 15 15 14 13 12 12 11 12 12 11 11 11 10 10 12 14 13 12 11 9 9 8 7 7 7 7 7 8 8 7 6 8 10 11 12
19 19 18 18 18 17 16 14 14 12 10 9 8 8 8 9 9 10 10 10 10 13 14 14 12 10 8 7 6 5 5 5 6 6 7 8 8 8 9 10 12 12
21 20 19 18 17 16 16 15 13 11 10 10 9 7 7 6 7 8 9 10 12 13 14 13 11 10 8 6 4 3 3 4 5 6 7 8 9 7 6 8 9 10
23 22 21 19 17 17 17 16 14 13 13 13 11 10 11 10 9 8 8 10 13 13 13 13 12 10 8 5 3 2 3 4 6 7 9 10 11 9 5 4 5 6
24 23 20 19 19 19 19 19 19 18 17 16 15 15 14 12 10 10 10 11 12 12 12 12 11 9 7 5 3 3 4 6 8 10 11 11 11 9 7 4 4 5
23 23 21 20 21 22 23 24 23 21 21 20 18 16 14 11 10 11 12 12 12 11 11 10 9 8 6 4 2 3 5 6 8 9 8 6 4 5 5 6 5 5
22 23 23 23 23 24 25 25 24 23 22 20 17 15 14 12 11 11 13 14 13 12 12 10 8 7 5 2 1 2 4 5 7 7 4 2 1 1 4 6 4 3
Wind_Direction
210 212 210 211 214 213 213 216 220 224 226 227 227 225 223 223 221 221 224 228 231 235 241 246 248 248 247 247 248 249 252 256 259 260 261 261 261 265 269 270 272 278
209 211 212 214 216 216 215 217 220 224 228 232 234 233 231 231 230 229 230 230 231 234 241 247 247 246 247 248 249 250 253 258 261 262 260 260 262 266 269 270 273 279
209 211 213 215 217 218 218 219 221 225 227 230 234 232 231 233 235 236 233 230 230 233 238 244 246 246 247 250 251 250 254 259 261 261 260 262 266 267 265 267 271 277
210 212 214 217 219 219 218 218 221 224 225 227 231 230 231 234 237 236 233 230 230 232 236 240 243 243 245 250 251 251 253 257 260 261 261 264 268 267 264 267 272 275
211 213 215 218 220 220 219 219 221 224 225 228 229 229 231 234 235 234 234 234 234 235 237 239 240 241 245 248 248 249 251 255 258 259 260 265 270 269 268 270 274 277
210 212 215 217 219 220 222 223 226 227 228 231 231 232 234 234 234 233 233 233 233 234 233 234 237 240 242 242 241 244 248 251 255 257 260 267 274 274 272 273 275 279
209 211 214 216 219 222 226 228 230 231 232 234 235 237 237 236 234 233 231 230 231 231 230 232 236 238 238 236 236 239 243 247 251 255 261 269 275 276 274 274 276 278
210 212 214 217 220 224 228 231 233 234 235 236 237 239 239 239 238 235 233 233 234 233 233 235 238 238 236 234 236 239 241 243 246 252 260 266 271 274 273 274 277 277
212 213 215 217 220 224 228 231 233 234 235 237 238 239 240 241 240 238 234 232 232 232 233 234 237 238 238 238 240 242 242 244 247 252 258 263 267 270 272 274 275 274
211 214 213 214 216 220 224 229 231 232 234 237 239 239 240 241 237 232 229 227 226 229 230 233 237 240 241 244 245 245 247 248 251 254 256 260 263 265 269 271 270 270
210 211 207 207 211 214 220 225 227 228 230 233 236 237 239 239 233 227 226 227 230 234 236 239 241 240 241 246 248 248 249 249 249 252 253 254 258 262 266 267 265 267
211 207 202 203 209 212 216 221 223 225 228 231 234 236 237 238 237 234 232 234 238 242 245 246 242 239 241 246 248 246 244 244 245 249 251 253 256 262 266 265 262 264
207 207 205 205 208 210 212 216 219 221 224 230 235 236 238 240 242 241 237 236 240 244 247 246 241 240 242 243 243 242 242 244 246 248 251 253 257 264 267 265 262 263
209 211 211 212 213 214 215 217 219 219 221 227 234 237 239 238 238 238 237 237 240 241 241 239 237 238 238 237 238 240 244 247 248 248 250 253 260 268 270 269 268 270
213 214 214 216 217 218 219 221 223 225 226 229 234 237 236 232 231 234 237 239 239 235 231 230 232 233 231 232 238 244 247 248 246 245 248 254 261 266 265 262 263 269
216 215 214 213 214 217 221 221 223 229 231 231 232 233 232 229 229 233 238 241 239 235 231 229 230 230 226 226 236 244 246 244 242 244 249 256 260 259 259 259 259 267
214 213 213 212 212 217 222 223 224 224 224 224 226 228 227 227 231 235 238 240 238 235 231 225 223 225 222 222 231 239 242 240 240 244 248 256 260 261 264 271 273 274
215 215 220 222 218 217 220 218 216 216 218 221 224 226 224 223 228 230 228 230 230 226 221 215 215 219 220 223 230 234 236 238 242 245 248 258 266 264 265 272 277 276
222 220 222 221 215 214 216 213 211 215 218 220 222 221 219 216 216 213 211 216 222 216 212 211 213 216 219 223 226 228 231 238 245 246 247 256 266 269 272 277 280 279
215 212 212 213 212 213 217 215 212 212 210 208 209 208 208 210 206 200 203 213 215 208 207 209 208 207 207 206 207 212 221 229 234 237 239 243 252 267 278 280 278 275
205 204 206 209 209 210 211 205 200 200 195 191 192 189 194 204 205 201 206 212 206 202 204 204 199 192 186 185 187 191 205 221 233 241 246 249 253 264 273 275 273 268
201 203 205 205 201 197 196 192 189 186 177 170 167 162 163 174 186 192 200 202 199 201 200 193 186 182 176 173 177 192 220 247 261 268 272 269 264 268 280 281 272 256
202 203 203 198 192 188 187 185 177 169 164 159 154 151 149 149 151 156 170 187 195 200 196 185 178 178 177 177 190 227 263 285 294 296 297 289 275 270 283 290 266 241
205 204 200 193 187 183 180 176 170 164 163 161 158 158 158 154 150 147 151 168 183 191 190 183 180 184 189 200 225 270 293 301 307 307 305 296 278 264 261 253 234 226
207 203 199 192 186 180 174 171 170 168 166 166 167 169 167 164 162 156 152 158 167 174 178 181 185 189 196 211 242 293 306 310 317 314 301 287 275 256 237 225 223 224
203 199 195 191 185 180 175 173 171 169 168 170 172 174 173 174 175 169 160 159 163 166 169 174 178 181 185 202 258 309 321 320 324 319 286 229 108 105 180 183 185 190